Hourly Data Report for September 12, 2017

All times are specified in Local Standard Time (LST). Add 1 hour to adjust for Daylight Saving Time where and when it is observed.

CLYDE RIVER A
NUNAVUT

70°29'09.000" N
68°31'01.000" W
26.50 m
2400804
71090
YCY

Related Data

No related data is available for this station

Download Data

Hourly Data (September 2017)
Hourly Data Report for September 12, 2017
Temp Definition
°C
Dew Point Temp Definition
°C
Rel Hum Definition
%
Wind Dir Definition
10's deg

Wind Spd Definition
km/h
Visibility Definition
km
Stn Press Definition
kPa
Hmdx Definition


Wind Chill Definition


Weather Definition


TIME
00:00 Legend Double Dagger 0.2 -0.2 97 25 8 14.5 100.54     Snow
01:00 Legend Double Dagger -0.1 -0.5 97 26 5 9.7 100.57   -2 Snow
02:00 Legend Double Dagger -0.2 -0.6 97 26 8 4.8 100.60   -3 Snow
03:00 Legend Double Dagger -0.2 -0.6 97 27 5 16.1 100.62   -2 Snow
04:00 Legend Double Dagger -0.1 -0.7 96 26 4 16.1 100.65   -1 Snow
05:00 Legend Double Dagger -0.4 -1.0 96 28 5 16.1 100.69   -2 Snow
06:00 Legend Double Dagger -0.1 -1.0 94 29 9 16.1 100.70   -3 Snow
07:00 Legend Double Dagger -0.1 -1.0 94 29 8 16.1 100.71   -3 Snow
08:00 Legend Double Dagger 0.3 -0.7 93 26 8 16.1 100.74     LegendNANA
09:00 Legend Double Dagger 0.8 -0.5 91 30 9 16.1 100.77     LegendNANA
10:00 Legend Double Dagger 1.4 -0.7 86 32 11 16.1 100.81     LegendNANA
11:00 Legend Double Dagger 1.8 -2.3 74 34 13 16.1 100.80     LegendNANA
12:00 Legend Double Dagger 2.0 -2.0 75 35 13 16.1 100.80     LegendNANA
13:00 Legend Double Dagger 2.1 -2.0 74 34 13 16.1 100.81     LegendNANA
14:00 Legend Double Dagger 2.2 -1.2 78 34 17 16.1 100.83     LegendNANA
15:00 Legend Double Dagger 2.1 -1.2 79 34 18 16.1 100.84     LegendNANA
16:00 Legend Double Dagger 1.4 -1.0 84 34 21 16.1 100.86     LegendNANA
17:00 Legend Double Dagger 0.1 -1.7 88 33 17 16.1 100.91     LegendNANA
18:00 Legend Double Dagger -0.1 -1.9 88 33 15 16.1 100.94   -5 LegendNANA
19:00 Legend Double Dagger -0.5 -1.4 94 33 15 9.7 100.97   -5 Fog
20:00 Legend Double Dagger -1.2 -1.9 95 30 13 16.1 101.01   -5 LegendNANA
21:00 Legend Double Dagger -0.8 -1.7 94 32 11 16.1 101.00   -5 Snow
22:00 Legend Double Dagger -0.6 -1.2 96 32 15 2.0 101.01   -5 Snow
23:00 Legend Double Dagger -0.7 -1.4 95 33 13 6.4 101.03   -5 Snow

Notes on Data Quality.

Legend

  • E = Estimated
  • M = Missing
  • NA = Not Available
  • ‡ = Partner data that is not subject to review by the National Climate Archives
Date modified: